Regional Weather Roundup
Issued by NWS

Home | Current Version | Previous Version | Graphics & Text | Print | Product List | Glossary On
Versions: 1 2 3 4 5 6 7 8 9 10 11 12 13 14 15 16 17 18 19 20 21 22 23 24 25 26 27 28 29 30 31 32 33 34 35 36 37 38 39 40 41 42 43 44 45 46 47 48 49 50
000
ASUS43 KIND 222159
RWRIN

WEATHER ROUNDUP FOR INDIANA
NATIONAL WEATHER SERVICE INDIANAPOLIS IN
600 PM EDT WED OCT 22 2014

NOTE: "FAIR" INDICATES FEW OR NO CLOUDS BELOW 12,000 FEET WITH NO
SIGNIFICANT WEATHER AND/OR OBSTRUCTIONS TO VISIBILITY.

* - STATION DOES NOT REPORT WEATHER SUCH AS PRECIPITATION OR FOG.

+ - STATION NOT QUALITY CONTROLLED BY THE NATIONAL WEATHER SERVICE.
    USE DATA WITH CAUTION...ESPECIALLY DEWPOINT AND RELATIVE
    HUMIDITY OBSERVATIONS.

INZ001>003-010>013-019-020-222300-
NORTHWEST INDIANA

CITY           SKY/WX    TMP DP  RH WIND       PRES   REMARKS
GARY /AIRPORT/ CLEAR     52  36  54 NE10      30.30F
VALPARAISO     NOT AVBL

$$

LMZ046-743>745-222300-
SOUTHERN LAKE MICHIGAN

STATION/POSITION TIME  TEMP WIND        PRES
                       AIR  DIR/SP/G
                 (UTC) (F)  (DEG/KT/KT) (MB)
MICHIGAN CITY    2100   48   10/  9/ 12   N/A

$$

INZ004-005-014>016-021>024-222300-
NORTH CENTRAL INDIANA

CITY           SKY/WX    TMP DP  RH WIND       PRES   REMARKS
ELKHART        CLEAR     50  37  62 E6        30.30S
GOSHEN         CLEAR     49  39  68 E6        30.29F
SOUTH BEND     CLEAR     56  32  40 CALM      30.30S

$$

INZ006>009-017-018-025>027-222300-
NORTHEAST INDIANA

CITY           SKY/WX    TMP DP  RH WIND       PRES   REMARKS
ANGOLA *+        N/A     46  39  76 NE5       30.30S
FORT WAYNE     PTCLDY    49  40  71 NE7       30.30S

$$

INZ028-029-035-036-043>045-051>053-222300-
WEST CENTRAL INDIANA

CITY           SKY/WX    TMP DP  RH WIND       PRES   REMARKS
GREENCASTLE +  CLEAR     55  39  54 CALM      30.26S
LAFAYETTE      CLEAR     56  38  50 NE5       30.27S
TERRE HAUTE    SUNNY     58  41  53 E5        30.25F

$$

INZ030>032-037>040-046>048-054>057-064-065-222300-
CENTRAL INDIANA

CITY           SKY/WX    TMP DP  RH WIND       PRES   REMARKS
INDIANAPOLIS   CLEAR     56  40  55 NE6       30.25F
-EAGLE CREEK   CLEAR     57  39  51 VRB3      30.26S
KOKOMO *+      CLEAR     55  39  54 NE5       30.27S
MT COMFORT *+  CLEAR     55  32  41 NE3       30.27S
SHELBYVILLE    CLEAR     58  40  51 N6        30.26S

$$

INZ033-034-041-042-049-050-058-059-222300-
EAST CENTRAL INDIANA

CITY           SKY/WX    TMP DP  RH WIND       PRES   REMARKS
MUNCIE         CLEAR     56  40  55 E6        30.26S

$$

INZ060-061-067>069-081>083-085>088-222300-
SOUTHWEST INDIANA

CITY           SKY/WX    TMP DP  RH WIND       PRES   REMARKS
EVANSVILLE     SUNNY     62  41  46 N5        30.24S
HUNTINGBURG *+ SUNNY     59  41  51 E6        30.23F

$$

INZ062-063-066-070>080-084-089>092-222300-
SOUTH CENTRAL AND SOUTHEAST INDIANA

CITY           SKY/WX    TMP DP  RH WIND       PRES   REMARKS
BLOOMINGTON    CLEAR     58  40  51 NE6       30.25S

$$




USA.gov is the U.S. government's official web portal to all federal, state and local government web resources and services.